{"data":{"norad_id":58718,"intl_designator":"2024-002P","name":"STARLINK-31097","alt_names":[],"object_type":"PAYLOAD","status":"ACTIVE","operator":null,"country":"US","launch_date":"2024-01-03","launch_site_code":"AFWTR","launch_vehicle":null,"mission":null,"orbit_class":"UNKNOWN","rcs_meters":null,"size_class":null,"mass_kg":null,"dimensions":null,"purposes":["comms"],"wikipedia_slug":null,"has_3d_model":false,"image_url":null,"decayed_at":null,"tle_current":{"epoch":"2026-09-20T13:37:02.140032Z","epoch_age_seconds":143981,"freshness":"FRESH","line1":"1 58718U 24002P   26263.56738588  .00000821  00000+0  35456-4 0  9993","line2":"2 58718  53.1593  43.2111 0001299  96.4206 263.6944 15.34390511151875","mean_motion":15.34390511,"eccentricity":0.0001299,"inclination_deg":53.1593,"raan_deg":43.2111,"arg_perigee_deg":96.4206,"mean_anomaly_deg":263.6944,"bstar":3.5456e-5,"rev_number":15187,"period_min":93.848338455998,"perigee_km":461.84281484934,"apogee_km":463.620072471,"semimajor_km":6840.8684436602,"source":"CELESTRAK","updated_at":"2026-09-21T09:00:33.949683Z"}}}